This demonstration page uses our WeatherBlox Daily Observations layout. Learn more.

Left ArrowRight Arrow

47.50024, -111.30081

Hourly Observations for April 11, 2020

Temp ( °F °C ) Dew Point ( °F °C ) Humidity (%) Winds ( mph kmh ) Pressure ( in mb ) Visibility ( mi km ) Precip ( " mm )
12:23 am 00:23 Cloudy with Light Snow 33 0.6 31 -0.6 92 92 N 17 28 29.98 1015 4 6 0.01 0.25
12:33 am 00:33 Cloudy with Light Snow 32 0 30 -1.1 92 92 NNE 18 30 29.99 1016 2 3 0.01 0.25
12:53 am 00:53 Windy with Snow Likely 32 0 29 -1.7 88 88 NNE 21 33 29.92 1013 2 3 0.03 0.76
1:09 am 01:09 Windy with Snow Likely 31 -0.6 29 -1.7 92 92 NNE 23 37 30.03 1017 2 2 0.01 0.25
1:14 am 01:14 Windy with Snow Likely 30 -1.1 27 -2.8 88 88 NNE 20 31 30.04 1017 1 1 0.01 0.25
1:53 am 01:53 Windy with Snow Likely 29 -1.7 26 -3.3 89 89 NNE 21 33 29.96 1015 1 1 0.05 1.27
2:53 am 02:53 Cloudy with Light Snow 27 -2.8 24 -4.4 89 89 NNE 18 30 29.99 1016 1 2 0.03 0.76
3:17 am 03:17 Cloudy with Light Snow 27 -2.8 23 -5 85 85 NNE 17 28 30.09 1019 2 3 0.01 0.25
3:27 am 03:27 Cloudy with Light Snow 27 -2.8 23 -5 85 85 NNE 16 26 30.09 1019 2 3 0.01 0.25
3:35 am 03:35 Cloudy with Light Snow 27 -2.8 23 -5 85 85 NNE 15 24 30.09 1019 3 5 0.01 0.25
3:53 am 03:53 Cloudy with Light Snow 26 -3.3 23 -5 88 88 N 15 24 30.01 1016 6 10 0.01 0.25
4:36 am 04:36 Cloudy with Light Snow 26 -3.3 23 -5 88 88 NNE 14 22 30.09 1019 3 4 0.01 0.25
4:53 am 04:53 Cloudy with Light Snow 26 -3.3 23 -5 88 88 NNE 16 26 29.99 1016 2 3 0.02 0.51
5:03 am 05:03 Cloudy with Light Snow 26 -3.3 22 -5.6 84 84 NNE 16 26 30.08 1019 1 2 0.01 0.25
5:53 am 05:53 Windy with Snow Likely 26 -3.3 22 -5.6 84 84 NNE 22 35 29.99 1016 1 2 0.02 0.51
6:53 am 06:53 Cloudy with Light Snow 25 -3.9 22 -5.6 88 88 NNE 17 28 30.02 1017 1 2 0.02 0.51
7:45 am 07:45 Cloudy with Snow 25 -3.9 22 -5.6 88 88 NNE 18 30 30.11 1020 1 1 0.01 0.25
7:53 am 07:53 Cloudy with Snow 25 -3.9 22 -5.6 88 88 NNE 17 28 30.04 1017 1 1 0.02 0.51
8:10 am 08:10 Mostly Cloudy with Snow 25 -3.9 22 -5.6 88 88 NNE 16 26 30.13 1020 0 0 0.01 0.25
8:53 am 08:53 Mostly Cloudy with Snow 25 -3.9 22 -5.6 88 88 NE 17 28 30.06 1018 0 0 0.05 1.27
9:53 am 09:53 Cloudy with Snow 25 -3.9 21 -6.1 85 85 NE 25 41 30.06 1018 1 1 0.03 0.76
10:39 am 10:39 Windy with Snow Likely 25 -3.9 21 -6.1 85 85 NE 21 33 30.15 1021 2 2 0.00 0.00
10:50 am 10:50 Windy with Snow Likely 25 -4 21 -6 86 86 NE 21 33 30.15 1021 3 5 0.01 0.25
10:53 am 10:53 Windy with Snow Likely 25 -3.9 21 -6.1 85 85 NE 20 31 30.10 1019 3 5 0.01 0.25
11:17 am 11:17 Cloudy with Light Snow 26 -3.3 21 -6.1 81 81 NE 16 26 30.15 1021 2 3 0.00 0.00
11:25 am 11:25 Cloudy with Light Snow 26 -3.3 21 -6.1 81 81 NE 17 28 30.15 1021 1 2 0.00 0.00
11:43 am 11:43 Cloudy with Light Snow 26 -3.3 22 -5.6 84 84 NNE 18 30 30.15 1021 1 1 0.00 0.00
11:53 am 11:53 Cloudy with Snow 26 -3.3 21 -6.1 81 81 NE 18 30 30.11 1020 1 1 0.00 0.00
12:32 pm 12:32 Windy with Snow Likely 25 -3.9 20 -6.7 81 81 NE 21 33 30.17 1022 1 2 0.00 0.00
12:53 pm 12:53 Windy with Snow Likely 26 -3.3 20 -6.7 78 78 NE 21 33 30.14 1021 1 2 0.00 0.00
1:14 pm 13:14 Cloudy with Light Snow 26 -3.3 21 -6.1 81 81 NE 17 28 30.17 1022 1 2 0.00 0.00
1:36 pm 13:36 Windy with Snow Likely 27 -2.8 21 -6.1 78 78 NE 21 33 30.15 1021 2 2 0.01 0.25
1:53 pm 13:53 Windy with Snow Likely 27 -2.8 22 -5.6 81 81 NE 20 31 30.15 1021 1 2 0.01 0.25
2:11 pm 14:11 Windy with Snow Likely 26 -3.3 21 -6.1 81 81 NE 20 31 30.17 1022 2 2 0.00 0.00
2:21 pm 14:21 Windy with Snow Likely 27 -2.8 21 -6.1 78 78 NE 21 33 30.17 1022 2 2 0.00 0.00
2:34 pm 14:34 Windy with Snow Likely 26 -3.3 21 -6.1 81 81 NE 22 35 30.18 1022 1 2 0.00 0.00
2:53 pm 14:53 Windy with Snow Likely 26 -3.3 21 -6.1 81 81 NE 20 31 30.18 1022 1 1 0.00 0.00
3:00 pm 15:00 Windy with Snow Likely 26 -3.3 21 -6.1 81 81 NE 20 31 30.20 1023 1 1 0.00 0.00
3:07 pm 15:07 Windy with Snow Likely 26 -3.3 21 -6.1 81 81 NE 21 33 30.20 1023 1 2 0.00 0.00
3:10 pm 15:10 Cloudy with Light Snow 26 -3.3 21 -6.1 81 81 NE 18 30 30.20 1023 1 1 0.00 0.00
3:25 pm 15:25 Cloudy with Snow 26 -3.3 21 -6.1 81 81 NNE 22 35 30.21 1023 1 1 0.01 0.25
3:30 pm 15:30 Windy with Snow Likely 26 -3.3 22 -5.6 84 84 NNE 21 33 30.20 1023 1 1 0.01 0.25
3:43 pm 15:43 Windy with Snow Likely 26 -3.3 21 -6.1 81 81 NNE 22 35 30.21 1023 1 2 0.01 0.25
3:53 pm 15:53 Windy with Snow Likely 26 -3.3 21 -6.1 81 81 NNE 21 33 30.21 1023 1 2 0.01 0.25
4:30 pm 16:30 Windy with Snow Likely 25 -3.9 20 -6.7 81 81 NNE 21 33 30.23 1024 1 2 0.00 0.00
4:51 pm 16:51 Windy with Snow Likely 25 -4 19 -7 80 80 NNE 20 31 30.24 1024 3 4 0.00 0.00
4:53 pm 16:53 Cloudy with Light Snow 25 -3.9 20 -6.7 81 81 NNE 17 28 30.22 1024 3 4 0.00 0.00
5:03 pm 17:03 Cloudy with Light Snow 25 -3.9 20 -6.7 81 81 NE 16 26 30.24 1024 2 3 0.00 0.00
5:12 pm 17:12 Cloudy with Light Snow 25 -3.9 20 -6.7 81 81 NE 17 28 30.24 1024 1 2 0.00 0.00
5:28 pm 17:28 Cloudy with Light Snow 25 -3.9 21 -6.1 85 85 NE 15 24 30.24 1024 1 1 0.01 0.25
5:48 pm 17:48 Cloudy with Light Snow 25 -4 19 -7 80 80 NNE 18 30 30.25 1024 1 1 0.01 0.25
5:53 pm 17:53 Windy with Snow Likely 24 -4.4 20 -6.7 84 84 NNE 20 31 30.24 1024 1 1 0.01 0.25
6:29 pm 18:29 Cloudy with Snow 23 -5 19 -7.2 85 85 NNE 18 30 30.29 1026 1 1 0.00 0.00
6:53 pm 18:53 Windy with Snow Likely 22 -5.6 18 -7.8 85 85 NNE 22 35 30.28 1025 1 1 0.01 0.25
7:02 pm 19:02 Windy with Snow Likely 22 -5.6 17 -8.3 82 82 NNE 24 39 30.31 1026 1 2 0.00 0.00
7:06 pm 19:06 Windy with Snow Likely 22 -5.6 17 -8.3 82 82 NNE 20 31 30.31 1026 2 3 0.00 0.00
7:09 pm 19:09 Windy with Snow Likely 22 -5.6 17 -8.3 82 82 NNE 21 33 30.32 1027 3 5 0.00 0.00
7:23 pm 19:23 Windy with Snow Likely 22 -5.6 17 -8.3 82 82 N 23 37 30.32 1027 8 13 0.00 0.00
7:53 pm 19:53 Cloudy with Light Snow 21 -6.1 16 -8.9 81 81 NNE 16 26 30.32 1027 3 5 0.00 0.00
7:58 pm 19:58 Cloudy with Light Snow 21 -6.1 17 -8.3 85 85 N 17 28 30.35 1028 3 4 0.00 0.00
8:02 pm 20:02 Cloudy with Light Snow 21 -6.1 17 -8.3 85 85 N 18 30 30.36 1028 2 3 0.00 0.00
8:08 pm 20:08 Cloudy with Light Snow 21 -6.1 17 -8.3 85 85 N 15 24 30.36 1028 1 1 0.00 0.00
8:15 pm 20:15 Cloudy with Light Snow 20 -6.7 17 -8.3 89 89 N 18 30 30.37 1028 1 2 0.00 0.00
8:26 pm 20:26 Cloudy with Light Snow 20 -6.7 16 -8.9 85 85 NNE 18 30 30.38 1029 1 2 0.00 0.00
8:34 pm 20:34 Windy with Snow Likely 20 -6.7 15 -9.4 81 81 NNE 21 33 30.38 1029 3 4 0.00 0.00
8:51 pm 20:51 Cloudy with Light Snow 19 -7 16 -9 86 86 NNE 17 28 30.39 1029 1 1 0.00 0.00
8:53 pm 20:53 Cloudy with Light Snow 20 -6.7 16 -8.9 85 85 NNE 17 28 30.35 1028 1 1 0.00 0.00
9:16 pm 21:16 Cloudy with Light Snow 20 -6.7 15 -9.4 81 81 N 18 30 30.41 1030 1 1 0.00 0.00
9:39 pm 21:39 Mostly Cloudy with Snow 20 -6.7 16 -8.9 85 85 NNE 15 24 30.42 1030 1 1 0.01 0.25
9:51 pm 21:51 Mostly Cloudy with Mist and Fog 19 -7 16 -9 86 86 N 13 20 30.43 1031 1 1 0.02 0.51
9:53 pm 21:53 Cloudy with Mist and Fog 20 -6.7 16 -8.9 85 85 N 13 20 30.38 1029 1 1 0.02 0.51
10:12 pm 22:12 Cloudy with Light Snow 19 -7.2 15 -9.4 84 84 N 13 20 30.43 1031 1 1 0.00 0.00
10:53 pm 22:53 Cloudy with Light Snow 19 -7.2 15 -9.4 84 84 N 10 17 30.41 1030 3 5 0.01 0.25
11:12 pm 23:12 Cloudy with Light Snow 19 -7.2 14 -10 81 81 N 13 20 30.45 1031 3 5 0.00 0.00
11:19 pm 23:19 Cloudy with Light Snow 19 -7.2 14 -10 81 81 N 12 19 30.45 1031 3 5 0.00 0.00
11:44 pm 23:44 Cloudy with Light Snow 19 -7.2 14 -10 81 81 NNW 9 15 30.45 1031 5 8 0.00 0.00
11:53 pm 23:53 Cloudy 18 -7.8 14 -10 84 84 NNW 8 13 30.42 1030 7 11 0.00 0.00

Powered by AerisWeather